CAPE
1055 1208 1493 887 368 143 781 1691 1294 522 646 388 31 975 757 546 645 597 899 1013 727 881 831 803 1116 1187 1412 937 647 458 478 298 140 143 11 0 20 93 157 206 152 330 346
1784 1813 1747 1887 1603 1161 828 664 798 1076 1409 349 566 408 815 645 506 807 1069 1176 1028 904 917 920 1007 1065 1117 1107 762 543 582 359 264 219 93 24 7 85 103 170 216 203 457
2068 1760 1805 378 156 946 1351 1697 824 403 1476 168 303 554 399 766 927 1089 1339 1382 1088 1092 997 755 664 872 1150 859 714 627 562 81 53 240 183 86 19 27 91 82 186 109 345
1934 1932 1024 272 0 1040 1901 515 504 1496 937 1 23 784 1122 752 924 998 1252 1371 1489 1271 948 494 224 0 0 0 0 258 420 228 42 25 158 127 35 23 74 72 101 121 94
1207 2009 1429 490 0 1247 1583 1304 1632 963 0 366 1278 536 191 920 1036 1432 1246 1385 1305 1265 1211 153 1 43 56 1 0 42 164 248 146 84 154 133 191 14 88 81 128 115 88
0 1129 1336 654 1070 1229 1676 1425 2295 242 343 1003 1511 686 573 650 1270 1050 1307 1289 1030 778 601 184 408 352 186 0 0 0 0 56 262 262 343 371 393 8 71 101 70 60 47
1206 1484 986 1398 1129 913 1376 1591 1926 2253 1967 1562 1552 1380 686 295 1144 1332 1088 860 968 872 917 947 510 228 220 1 0 0 0 0 7 189 533 481 344 9 45 104 94 43 57
1964 2277 1245 1230 1984 1208 1782 1849 2618 2240 2146 1764 1589 1683 429 347 574 1495 1260 1184 1028 761 557 332 226 150 92 97 88 3 0 0 0 60 333 497 241 17 36 80 86 57 44
1889 1900 2010 2138 2698 2567 82 0 694 2658 2227 1919 1799 1687 918 748 942 284 1781 1686 1140 727 465 256 247 85 3 25 30 41 3 0 0 0 191 398 269 70 24 71 80 61 70
2257 1715 1639 2267 2627 2746 323 188 1596 2138 2273 1854 2051 1933 1764 1596 969 772 1013 1778 1327 695 311 215 94 43 7 5 27 18 4 0 1 2 0 247 267 135 85 84 90 44 27
2096 1955 2037 2463 2676 2898 2814 2566 2989 3478 2074 2288 1952 1779 1722 1977 1667 1074 464 504 912 581 260 114 0 5 19 16 8 8 6 0 0 0 0 0 259 338 246 210 200 26 28
1274 2336 1898 2290 2761 2768 2770 3237 3068 2908 2785 2628 2426 2545 1778 1792 1335 407 801 920 373 610 195 56 0 0 10 10 7 5 11 0 2 0 0 5 187 298 426 459 335 47 106
1188 2127 2561 2509 2480 3229 3085 3593 3157 3055 2437 2265 2556 2649 2376 2462 1824 1567 1061 1330 521 886 386 104 0 0 0 0 9 14 7 6 7 0 0 0 15 132 302 462 368 226 219
1165 2120 2828 1705 2268 2433 2868 3102 3151 3284 3135 2805 2564 2814 2615 2710 2714 1350 1721 1379 979 702 466 181 2 0 0 2 0 8 0 0 5 1 0 0 0 7 171 322 463 315 172
1377 1371 1606 1432 1588 1727 2473 2643 3157 2943 2931 2713 2797 2668 2372 2245 2580 2443 1676 1280 943 520 484 82 4 0 0 3 0 0 0 2 1 0 0 0 0 0 167 359 301 69 245
3225 3189 3109 3152 3175 2887 2918 3126 3229 3049 2877 3117 3051 2807 2526 2655 2551 2504 1998 1375 1080 602 529 170 31 0 0 0 0 6 0 0 0 0 0 0 0 0 0 443 470 431 282
3026 3257 3477 3587 3634 3585 3618 3440 3177 3178 2758 2528 2472 2574 2667 2864 2406 2241 2178 1400 902 1171 819 108 0 0 0 0 0 10 25 2 0 0 0 0 15 10 1 9 23 77 76
3554 3505 3514 3507 3725 3876 3981 3948 3967 3794 3371 3372 3661 3468 3222 2973 2712 2299 1848 1280 1164 1160 756 234 0 0 0 0 0 8 23 17 0 0 0 0 0 0 0 0 0 0 1
3819 3842 3856 3975 4115 4173 4193 4290 4244 4106 3929 3813 3662 3362 2924 3180 2977 2561 1807 1470 1277 953 783 224 0 0 0 0 0 0 1 0 0 0 0 0 0 0 0 0 0 0 35
3724 3961 4295 4291 4266 4399 4486 4359 4316 4211 4159 3971 3638 3365 3118 2962 2605 2360 1853 1549 910 1062 775 552 0 0 0 0 0 1 7 14 1 0 0 0 0 0 0 0 0 0 0
1266 1581 2059 2160 3348 4124 3563 3525 4249 4238 3871 3772 3576 3429 3191 3108 2989 2719 1937 1732 1262 908 800 427 0 0 0 0 0 0 24 11 26 40 0 0 0 0 0 0 0 0 0
299 327 388 624 1003 1389 879 685 1232 2345 3216 3598 3638 3685 3709 3119 2514 2336 2048 1661 1405 1166 604 247 0 0 0 0 0 0 5 8 5 54 0 0 3 1 6 4 0 0 0
480 407 289 257 215 623 467 242 126 103 34 487 1527 2713 3666 3664 2931 2196 1596 967 629 661 593 496 104 0 0 0 0 0 9 0 0 22 46 0 0 0 0 0 0 0 0
375 474 472 488 84 459 170 70 0 0 63 27 510 2024 3480 3253 3472 2660 1911 1155 671 289 278 152 37 3 0 0 0 0 0 0 0 17 34 5 0 1 0 0 0 0 0
0 0 86 97 157 787 547 70 0 101 0 18 27 702 1489 2983 3482 2619 2012 1510 812 430 41 2 0 2 0 0 0 0 0 0 0 0 7 2 0 12 0 0 0 0 0
0 22 6 4 0 0 1 195 0 0 0 0 0 10 1080 1555 2522 2461 2110 1625 1092 590 119 0 0 0 0 0 0 0 0 0 12 10 28 0 0 0 5 0 0 0 0
CIN
-8 -6 -9 -36 -394 -127 -50 -17 -15 -23 -20 -56 -89 -73 -35 -39 -40 -63 -71 -62 -90 -87 -73 -72 -44 -28 0 0 -1 -2 -2 -6 -17 -4 -19 0 -25 -21 -22 -11 -12 -9 -14
-8 -6 -7 -17 -14 -41 -6 -21 -16 -21 -11 -37 -28 -36 -24 -32 -32 -21 -53 -60 -77 -75 -77 -68 -59 -43 -19 0 -1 -2 0 0 -2 0 -17 -14 -20 -6 -3 -10 -13 -10 -17
-1 -11 -10 -94 -166 -51 -11 -17 -21 -38 -13 -89 -60 -49 -22 -11 -10 -18 -38 -67 -79 -72 -64 -66 -59 -40 -12 -12 -5 -3 -1 -10 -6 -2 0 0 -1 -19 -21 -17 -9 -11 -9
-8 -11 -37 -212 0 -107 -17 -30 -13 -20 -87 -12 -104 -44 -10 -14 -31 -39 -26 -46 -43 -48 -47 -73 -90 0 0 0 0 -14 0 -1 -4 -6 -6 0 -2 0 -30 -14 -16 -7 -17
-33 -7 -34 -90 0 -86 -5 -12 -17 -110 0 -144 -68 -17 -19 -7 -28 -28 -44 -28 -18 -15 -28 -154 -13 -136 -86 -10 0 -82 -10 -2 -5 -1 0 0 -2 0 -3 -8 -2 -7 -20
0 -50 -9 -32 -53 -19 -14 -18 -15 -158 -139 -42 -24 -16 -16 -16 -14 -24 -55 -43 -36 -19 -36 -107 -23 -24 -25 -13 0 0 0 -33 -1 -10 -4 0 0 -1 -5 -2 -24 -21 -23
-37 -45 -6 -17 -15 -12 -12 -14 -12 -12 -10 -9 -9 -22 -15 -28 -16 -25 -40 -37 -35 -27 -24 -17 -21 -31 -15 -9 0 0 0 0 -11 -25 0 0 0 -30 -4 0 -2 -12 -25
-5 -3 -11 -9 -10 -8 -57 -37 -7 -9 -7 -11 -5 -7 -25 -14 -27 -8 -27 -32 -34 -38 -55 -48 -57 -74 -87 -62 -44 -9 0 0 0 -49 -3 0 -1 -8 -4 -50 -5 -21 -14
-3 -12 -7 -8 -5 -10 -149 0 -124 -5 -12 -18 -15 -10 -12 -11 -7 -30 -15 -24 -25 -36 -55 -99 -51 -123 -8 -79 -39 -158 -6 0 0 0 0 0 -2 -17 -1 -37 -29 -4 -8
-2 -3 -2 -3 -4 -7 -111 -466 -74 -26 -16 -18 -15 -15 -14 -13 -12 -7 -10 -26 -36 -69 -70 -90 -165 -173 -5 -7 -4 -16 -37 0 -8 -13 0 0 0 -10 -12 -12 -11 -1 -2
-8 -16 -6 -5 -1 -2 -5 -7 -9 -10 -17 -9 -13 -6 -8 -6 -23 -11 -6 -8 -45 -58 -109 -167 0 -4 -1 -10 -21 -29 -36 0 0 0 0 0 0 0 0 -58 0 -1 0
-19 -19 -22 -8 -8 -8 -6 -3 -9 -5 -12 -10 -19 -8 -11 -6 -4 -39 -20 -7 -10 -76 -163 -215 0 0 -7 -16 -19 -24 -11 0 0 0 0 -6 -12 -1 0 0 -1 -20 -22
-5 -24 -23 -6 -14 -3 -12 -2 -4 -8 -13 -20 -16 -12 -16 -8 -14 -8 -22 -16 -26 -27 -106 -180 0 0 0 0 -13 -9 -4 0 -1 0 0 -1 -25 -23 -4 0 0 0 -24
-10 -9 -11 -9 -17 -20 -10 -4 -7 -3 -3 -2 -7 -9 -15 -11 -8 -24 -9 -21 -30 -9 -86 -126 -25 0 0 -13 0 -1 0 0 -9 -8 0 0 0 -1 -46 -3 0 -16 -1
-28 -11 -16 -42 -51 -58 -31 -14 -2 -3 -3 -12 -10 -11 -14 -16 -12 -7 -28 -36 -47 -72 -57 -179 -246 0 0 -24 0 0 -2 -8 -12 0 0 0 0 0 -45 -56 -1 -1 0
-12 -19 -19 -19 -23 -33 -32 -14 -4 -2 -2 -2 -3 -2 -9 -10 -15 -10 -4 -28 -53 -83 -77 -159 -212 0 0 0 0 -6 0 0 0 0 0 0 0 0 0 -23 -5 0 -1
-33 -30 -31 -33 -33 -37 -27 -20 -25 -19 -20 -19 -14 -11 -9 -11 -26 -16 -8 -14 -22 -6 -12 -134 0 0 0 0 0 -5 -6 -5 0 0 0 0 -219 -214 -175 -157 -137 -49 -90
-24 -31 -36 -44 -42 -40 -32 -19 -10 -7 -7 -3 -2 -2 -4 -8 -9 -24 -16 -33 -45 -50 -74 -115 0 0 0 0 0 -4 -12 -11 0 0 0 0 0 0 0 -2 -6 0 -8
-23 -28 -33 -31 -25 -25 -24 -19 -8 -7 -8 -5 -2 -3 -5 -2 -2 -8 -16 -15 -23 -44 -86 -144 0 0 0 0 0 0 -2 0 0 0 0 0 0 0 0 0 0 0 -55
-40 -16 -3 -4 -8 -7 -8 -12 -6 -4 -4 -2 -2 -3 -4 -6 -11 -10 -14 -52 -87 -38 -57 -26 0 0 0 0 0 -7 -17 -14 -8 0 0 -1 0 0 0 0 0 0 0
-303 -261 -180 -151 -34 -1 -26 -54 -10 -4 -4 -5 -6 -8 -7 -3 -4 -4 -11 -25 -32 -62 -34 -58 0 0 0 0 0 -1 -19 -36 -36 -13 0 0 0 0 0 0 0 0 0
-454 -456 -408 -379 -296 -196 -331 -357 -278 -114 -41 -21 -14 -10 -1 -9 -23 -27 -31 -27 -54 -55 -59 -52 -3 0 0 0 0 0 -31 -28 -19 -35 0 0 -5 -3 -11 -34 0 0 0
-351 -364 -408 -406 -394 -315 -335 -419 -475 -502 -374 -327 -159 -47 -3 -2 -12 -49 -96 -134 -145 -140 -120 -66 -69 0 0 0 0 0 -4 0 0 -28 -10 -27 0 0 0 0 0 0 0
-344 -332 -339 -339 -454 -353 -395 -457 0 0 -481 -527 -296 -77 -1 -6 -5 -17 -67 -111 -139 -201 -178 -146 -157 -45 0 0 0 0 0 0 0 -9 -17 -22 0 -25 0 0 0 0 0
0 0 -447 -452 -393 -296 -345 -480 0 -453 0 -507 -489 -217 -97 -2 -2 -17 -34 -62 -120 -160 -338 -54 0 -31 0 0 0 0 0 0 0 0 -24 -24 -2 -33 0 0 0 0 0
0 -508 -560 -485 0 0 -14 -396 -77 0 0 0 0 -109 -121 -82 -27 -25 -30 -42 -56 -100 -277 0 0 0 0 0 0 0 0 0 -8 -9 -19 -4 0 0 -30 0 0 0 0
Wind_Speed
12 13 12 10 14 12 11 10 12 10 10 20 21 10 6 11 15 13 13 14 13 13 11 9 8 7 6 7 9 10 9 10 9 11 12 20 19 22 26 29 28 25 19
7 8 10 12 10 9 12 13 13 9 8 7 12 9 7 9 15 14 20 15 16 16 14 12 10 7 5 4 6 9 11 12 12 13 14 16 24 24 16 22 18 25 19
16 15 14 12 10 12 11 11 13 8 6 21 13 8 5 11 20 20 22 20 18 18 16 14 14 11 8 5 4 6 10 10 10 11 15 15 22 28 26 22 22 19 22
13 10 15 17 11 12 10 18 19 20 26 12 7 7 7 20 22 22 23 21 19 18 17 16 15 14 12 10 7 6 6 8 10 13 16 18 19 25 24 13 23 27 15
19 10 13 12 10 9 9 21 25 28 10 12 10 5 8 18 20 21 22 22 21 19 17 16 16 14 13 13 13 11 8 4 5 9 16 20 22 23 30 23 18 24 22
11 10 10 10 11 9 18 21 21 22 11 10 4 7 6 16 18 20 22 21 21 20 18 17 16 14 12 14 14 13 11 9 6 6 12 18 18 23 27 28 26 19 15
9 11 12 10 10 12 19 19 19 15 17 14 9 15 21 23 16 19 20 21 21 21 22 20 20 19 13 12 12 13 13 14 14 8 5 9 16 24 26 28 29 23 23
11 6 12 13 20 19 22 22 10 15 17 16 14 21 22 22 26 20 19 19 22 22 24 23 21 20 17 13 12 12 16 17 17 18 9 8 14 20 25 27 25 23 14
11 11 12 16 18 18 18 12 9 14 18 16 10 21 24 24 26 28 18 18 19 22 23 23 21 20 18 16 15 17 18 19 17 15 15 5 11 16 22 26 23 21 20
11 12 11 13 13 15 11 9 9 16 15 9 5 16 18 20 23 24 23 17 18 20 22 24 22 19 17 19 20 21 22 22 16 14 12 10 11 15 18 22 24 22 26
11 12 10 11 15 13 14 12 13 14 15 8 26 26 25 27 7 14 26 26 19 20 23 24 25 21 20 22 21 22 24 26 20 17 15 9 1 13 16 24 22 26 29
9 9 9 10 13 10 7 9 11 8 11 12 17 18 6 25 19 6 29 26 23 20 21 22 24 22 23 22 22 24 24 24 21 20 20 16 12 6 8 18 23 26 27
11 6 8 10 9 8 8 8 7 7 6 11 11 12 5 4 11 27 27 25 22 18 20 22 22 22 22 21 24 25 24 23 20 21 20 18 15 12 14 12 22 23 24
16 16 12 10 8 8 9 9 7 6 6 10 8 7 4 3 14 17 23 21 22 21 21 23 22 22 19 21 25 23 24 22 20 20 19 18 17 15 19 22 16 23 24
17 14 13 9 9 10 9 7 6 6 4 4 4 4 5 3 12 18 19 18 20 22 23 21 22 21 23 22 23 22 22 21 20 20 19 18 18 17 19 24 27 32 23
16 16 11 9 8 7 6 5 4 3 3 6 4 6 10 10 13 12 15 17 18 18 18 18 19 22 22 23 22 21 21 19 19 20 19 18 18 17 16 15 20 17 15
17 15 12 8 6 5 4 3 2 2 1 3 6 6 6 11 11 11 21 23 19 17 17 20 20 19 18 18 21 21 18 17 18 20 19 18 17 15 14 13 14 18 21
18 11 8 7 6 4 3 2 3 5 6 9 11 8 6 10 10 13 18 14 16 19 18 17 17 15 14 16 18 18 19 17 17 17 18 18 16 15 13 13 14 16 19
26 26 2 2 1 2 2 0 3 5 8 9 10 11 10 10 12 14 16 16 21 13 15 16 16 13 15 15 15 16 16 16 17 14 14 15 14 14 13 14 15 15 14
21 22 21 13 10 9 7 4 7 10 12 15 14 12 13 12 14 16 16 13 9 11 11 13 12 14 14 11 12 13 15 13 15 14 15 14 11 13 13 13 14 15 13
24 26 26 28 28 20 24 27 19 19 20 20 18 18 18 13 12 14 14 10 11 10 9 12 11 13 13 11 12 11 12 12 15 13 15 15 16 14 17 14 13 13 16
24 24 25 24 24 24 25 28 29 30 30 30 31 29 25 22 18 16 14 11 8 10 10 11 10 9 8 8 9 12 12 13 13 13 14 14 16 8 12 12 10 13 15
25 24 24 24 25 24 25 28 29 31 33 31 32 32 29 28 19 18 17 13 10 11 10 11 10 12 8 7 9 10 13 13 11 14 14 15 11 9 10 12 12 13 16
28 27 27 27 29 27 27 29 32 34 33 34 33 35 31 28 22 20 19 17 12 11 11 9 9 10 9 8 8 10 12 13 14 14 14 14 14 9 11 11 15 16 18
33 33 31 35 34 31 32 35 36 35 38 36 36 36 36 34 27 19 19 18 15 13 13 9 9 8 7 7 8 10 10 12 13 13 14 15 16 19 20 21 19 21 21
37 36 38 38 41 42 41 38 38 39 40 38 38 37 35 38 35 20 18 17 15 13 11 11 10 7 5 5 7 8 10 11 11 14 15 17 20 22 21 23 22 21 19
Wind_Direction
138 108 108 118 101 145 114 133 107 105 119 46 48 139 155 99 103 99 106 108 90 73 79 84 98 127 142 173 187 190 190 189 185 186 182 193 189 216 257 251 247 248 249
322 237 139 64 109 151 111 115 92 118 116 103 90 107 142 132 99 91 81 90 75 71 72 75 80 95 117 143 175 194 198 197 197 190 188 189 189 186 244 256 254 247 247
353 215 271 66 138 199 107 116 70 83 242 315 277 247 166 112 80 78 68 70 72 64 65 68 67 66 76 85 158 194 194 199 203 197 195 188 186 190 186 253 248 247 244
45 106 23 9 208 206 166 61 45 41 350 74 222 223 174 65 63 60 61 64 70 66 60 63 61 56 58 57 58 72 167 193 206 206 202 197 189 188 182 223 244 239 243
318 69 45 68 134 157 107 19 13 5 329 263 247 248 168 70 69 70 63 63 60 57 60 61 57 54 59 54 52 63 72 131 186 196 204 198 195 182 180 176 230 238 242
115 142 51 90 135 133 41 30 36 45 93 96 205 225 191 48 61 68 61 60 55 54 54 57 52 55 60 52 53 56 57 53 68 206 198 192 176 181 177 175 173 225 234
135 148 74 112 95 71 17 26 42 58 59 68 263 288 48 52 73 65 58 52 49 48 47 43 43 47 52 55 53 49 44 36 29 53 112 152 170 173 175 175 174 174 172
168 204 336 26 347 3 347 330 79 64 53 61 67 328 353 18 13 49 47 49 41 44 42 40 40 42 46 52 49 45 35 26 18 12 36 148 164 170 176 178 177 174 194
117 76 110 10 4 10 22 193 174 69 44 57 79 24 8 357 356 17 42 43 39 38 37 39 39 40 44 43 39 36 25 18 16 13 5 76 155 171 177 181 183 184 182
124 155 83 52 46 37 57 72 134 47 47 73 100 47 41 32 17 22 31 37 42 34 33 30 33 37 40 33 31 24 15 9 12 10 5 4 170 177 180 180 183 190 183
124 147 126 85 36 55 43 69 46 51 44 78 358 339 328 353 73 39 12 17 36 32 27 27 24 29 29 29 26 17 10 2 6 0 351 353 17 180 184 180 184 182 182
150 147 136 58 47 71 113 82 66 74 55 46 32 13 233 356 8 305 11 9 13 22 26 26 23 25 24 26 23 18 13 11 12 3 345 334 327 300 205 194 184 180 181
206 115 113 59 77 112 145 136 88 80 83 49 53 50 83 230 352 347 8 12 14 25 20 22 23 23 22 25 22 19 19 17 18 5 355 341 328 306 278 220 191 190 188
209 5 123 105 144 171 187 191 147 150 149 74 73 66 116 138 30 27 19 23 19 18 17 14 20 20 23 27 23 25 22 23 21 5 356 348 337 320 283 267 192 188 178
202 195 182 158 182 197 200 189 167 181 133 102 118 87 76 82 37 18 20 29 24 16 10 17 16 21 20 22 25 27 26 27 27 14 0 351 332 324 297 261 253 167 172
210 218 177 165 166 163 165 153 122 115 92 57 73 63 34 23 13 17 19 21 21 21 23 26 22 16 13 21 27 28 30 36 30 15 2 359 340 323 306 278 256 241 224
208 206 198 184 171 179 168 134 127 60 309 5 11 6 360 6 3 5 358 0 17 20 21 21 18 21 25 24 26 27 37 44 35 19 9 3 353 334 304 284 266 255 242
214 190 180 183 183 177 178 92 38 30 18 10 7 0 349 353 350 356 354 5 20 17 19 16 25 42 47 40 34 34 41 44 40 31 16 9 357 326 306 285 270 263 257
290 292 143 43 126 182 198 20 12 6 3 2 358 351 343 337 340 348 352 4 354 8 15 23 29 42 42 46 44 44 46 51 48 56 49 30 8 325 301 285 273 268 263
317 322 323 340 346 350 351 345 355 357 358 355 354 351 348 339 337 338 345 345 355 360 11 15 28 41 36 53 44 49 45 60 53 68 48 35 17 301 288 289 272 268 264
315 315 316 313 314 333 334 331 339 343 344 345 347 346 343 338 332 336 340 340 347 358 4 12 22 31 31 45 38 50 49 65 57 71 64 103 127 218 249 273 272 266 252
322 325 322 328 328 328 331 328 325 326 328 328 328 332 335 337 339 343 340 337 334 344 353 1 10 21 29 43 46 49 59 55 58 84 85 93 126 198 275 277 284 259 252
325 327 326 325 325 327 328 327 327 325 323 325 324 326 330 328 332 335 337 334 333 336 343 349 357 11 31 46 47 47 50 55 70 86 107 82 24 12 305 275 275 266 251
319 321 321 319 317 317 319 320 319 319 319 319 319 318 320 324 324 323 326 324 317 323 331 339 351 4 30 43 56 47 57 61 72 99 100 96 107 49 308 297 267 257 248
313 311 314 311 311 310 312 311 312 312 312 312 314 314 314 314 317 314 315 318 313 316 333 336 346 2 28 53 64 63 66 77 85 93 103 106 120 193 178 218 240 238 233
308 309 308 308 306 305 305 306 306 306 306 308 309 310 311 311 311 302 302 305 303 303 316 332 339 358 28 70 100 77 85 94 90 87 100 112 119 146 164 191 202 215 225